Data Lulusan/Alumni Prodi S1 Pendidikan Guru PAUD

Nama-nama Lulusan S1 Pendidikan Guru Pendidikan Anak Usia Dini (PG-PAUD) STKIP AN-NUR

NO NIM  NAMA TEMPAT LAHIR TANGGAL LAHIR IPK NO.IJAZAH
1 1031030001 KHADIJAH BIREUEN 20 September 1984 3,4 013114/C/86207/20131/0001
2 1031030002 JUMIATI BIREUEN 16 Nopember 1977 3,23 013114/C/86207/20131/0002
3 1031030003 SYARIFAH BIREUEN 02 April 1975 3,16 013114/C/86207/20131/0003
4 1031030004 SILFIA PANTE PISANG 03 Juli 1971 2,96 013114/C/86207/20131/0004
5 1031030005 EMI DAHLINAR BIREUEN 06 Januari 1984 3,05 013114/C/86207/20131/0005
6 1031030006 HALIMATUSYAKDIAH BLANG PULO 02 Maret 1989 3,25 013114/C/86207/20131/0006
7 1031030007 HERAWATI MNS TUNONG 01 Januari 1983 3,31 013114/C/86207/20131/0007
8 1031030008 DARYANI ULEE CEU 04 Maret 1981 3,37 013114/C/86207/20131/0008
9 1031030010 ISLAWANI BIREUEN 25 Desember 1974 3,73 013114/C/86207/20131/0009
10 1031030011 ZAKIYAH SAMALANGA 05 Nopember 1988 3,37 013114/C/86207/20131/0010
11 1031030012 FITRI JEUNIEB 03 Agustus 1984 3,35 013114/C/86207/20131/0011
12 1031030013 NURMASYITHAH BLANG KUBU KECAMATAN PEUDADA 01 April 1983 3,27 013114/C/86207/20131/0012
13 1031030014 SRIWAHYUNI LIPAH CUT 09 April 1989 3,55 013114/C/86207/20131/0013
14 1031030015 MISLIA DARNIATI BIREUEN 06 Maret 1979 3,48 013114/C/86207/20131/0014
15 1031030016 ROSMAWATI BIREUEN 07 Juli 1989 3,15 013114/C/86207/20131/0015
16 1031030017 SURYANI DUA PAYA 20 Oktober 1978 3,78 013114/C/86207/20131/0016
17 1031030019 AYU MAILIS BIREUEN 26 Mei 1982 3,45 013114/C/86207/20131/0017
18 1031030020 WARDANI BIREUEN 21 Agustus 1982 3,57 013114/C/86207/20131/0018
19 1031030021 JULINA BLANG COT BAROH 26 Mei 1980 3,33 013114/C/86207/20131/0019
20 1031030022 ELI FITRI BIREUEN 17 September 1977 3,34 013114/C/86207/20131/0020
21 1031030023 YUSRAWATI UTEUEN GATHOM 06 Agustus 1978 3,27 013114/C/86207/20131/0021
22 1031030024 ROSMALADEWI DAYAH PANJOE 16 Januari 1971 3,48 013114/C/86207/20131/0022
23 1031030025 HERAWATI BIREUEN 22 Juli 1982 3,41 013114/C/86207/20131/0023
24 1031030026 FITRIANI BIREUEN 31 Juli 1981 3,4 013114/C/86207/20131/0024
25 1031030027 AGUSTINAR BIREUEN 17 Agustus 1982 3,51 013114/C/86207/20131/0025
26 1031030029 RIA HAYU NINGSIH BINJAI 04 Februari 1987 3,16 013114/C/86207/20131/0026
27 1031030031 NURAINI SEUNEBUK ANTARA 12 Juni 1972 3,66 013114/C/86207/20131/0027
28 1031030032 SURIASIH LANGSA 12 Agustus 1974 3,45 013114/C/86207/20131/0028
29 1031030033 RAHMANELI SYAHFITRI RANTAU 06 Mei 1988 3,67 013114/C/86207/20131/0029
30 1031030034 NURUL KHAIRINA LHOK DALAM 29 Desember 1984 3,23 013114/C/86207/20131/0030
31 1031030035 LAILA MEIRISKA KUALASIMPANG 02 Mei 1989 3,24 013114/C/86207/20131/0031
32 1031030036 SARDIANA TANJUNG LIPAT 11 Nopember 1979 3,35 013114/C/86207/20131/0032
33 1031030037 ASMAWATI KEBUN TIGA 02 April 1988 3,29 013114/C/86207/20131/0033
34 1031030038 RIA ASTRIANA KARANG BARU 21 Agustus 1988 3,55 013114/C/86207/20131/0034
35 1031030039 YUSMIDAR SERUWAY  A. TIMUR 01 Desember 1972 3,49 013114/C/86207/20131/0035
36 1031030040 SAMIYAH ACEH TIMUR 12 Maret 1969 3,42 013114/C/86207/20131/0036
37 1031030043 RIRI PERAMASARI LANGSA 18 Februari 1988 3,23 013114/C/86207/20131/0037
38 1031030045 PUTRI GILANG KENCANA KUALASIMPANG 15 Mei 1989 2,92 013114/C/86207/20131/0038
39 1031030046 YUNI ASTUTI BANDA ACEH 02 Maret 1981 3,2 013114/C/86207/20131/0039
40 1031030047 FITRIA SARI BANDAR BARU 09 April 1989 3,22 013114/C/86207/20131/0040
41 1031030048 FATMAWATI PAHLAWAN 16 Januari 1989 3,55 013114/C/86207/20131/0041
42 1031030049 AISYAH TANJUNG MANCANG 14 September 1987 3,32 013114/C/86207/20131/0042
43 1031030050 NURHAYATI WAN TELUK KEMIRI 10 Februari 1985 3,21 013114/C/86207/20131/0043
44 1031030051 NAFSIAH RANTAU PANJANG 16 Desember 1984 3,32 013114/C/86207/20131/0044
45 1031030053 MAULIZA SYAHPUTRI KARANG BARU 11 Nopember 1989 3,37 013114/C/86207/20131/0045
46 1031030054 GERHANA PEBRIANTI LUBIS KARANG BARU 09 Februari 1989 3,17 013114/C/86207/20131/0046
47 1031030055 LENI LESTARI SUKA RAMAI 09 September 1987 3,55 013114/C/86207/20131/0047
48 1031030056 LIZA NOVIANTY KARANG BARU 18 Nopember 1984 3,17 013114/C/86207/20131/0048
49 1031030057 JULIFAHRINA SUNGAI KURUK II 20 Juli 1984 3,23 013114/C/86207/20131/0049
50 1031030059 SAFRIDA AINI SUKA MULIA 05 Februari 1986 3,36 013114/C/86207/20131/0050
51 1031030060 NETI SUSANTI JULOK 29 Januari 1989 3,33 013114/C/86207/20131/0051
52 1031030061 HUSNIATI CV  V BUKIT MAKMUR JULOK 04 Mei 1987 3,39 013114/C/86207/20131/0052
53 1131030002 SUMIATI BOGOR 06 Oktober 1975 3,51 013114/C/86207/20132/0053
54 1131030097 ELLIYANA ATONG 06 September 1979 3,71 013114/C/86207/20132/0054
55 1131030127 YULIS SAFITRI KEURAMAT LUAR 11 Juli 1986 3,3 133017/C/86207/20141/0055
56 1131030128 NURMALA DESA COT LHEU REUNG 04 April 1984 3,4 133017/C/86207/20141/0056
57 1131030129 SAFRIANI DESA KUMBANG 24 Oktober 1984 3,52 133017/C/86207/20141/0057
58 1131030130 NILAWATI COT ARA 11 Juli 1979 3,41 133017/C/86207/20141/0058
59 1131030132 YUSNAINI DESA TUHA 01 Agustus 1975 3,41 133017/C/86207/20141/0059
60 1131030133 DASRI YANTI BANDA ACEH 14 Juli 1985 3,44 133017/C/86207/20141/0060
61 1131030134 HUSRINA SIGLI 10 Juni 1985 3,39 133017/C/86207/20141/0061
62 1131030135 SITTI RAMADHANA BLANG PASEH 29 April 1987 3,36 133017/C/86207/20141/0062
63 1131030136 FITRAH DARYANI BLANG PASEH 12 Oktober 1978 3,36 133017/C/86207/20141/0063
64 1131030137 HEVI FITHRYAWATI  H BIREUEN 19 Maret 1983 3,42 133017/C/86207/20141/0064
65 1131030138 NADIATUL ULFAH SIGLI 11 September 1984 3,44 133017/C/86207/20141/0065
66 1131030140 HUSNIATI PULO 10 Oktober 1973 3,58 133017/C/86207/20141/0066
67 1131030143 TIYA ANDAYANI DESA MEUE 08 Agustus 1985 3,32 133017/C/86207/20141/0067
68 1131030144 FITRIANI DESA MEUE 03 Juni 1987 3,5 133017/C/86207/20141/0068
69 1031030018 RITA ZAHARA   BANDA AACEH 15 Mei 1968 3,6 133017/C/86207/20142/0069
70 1231030001 NURHAFNI BIREUEN 13 Desember 1975 3,37 133017/C/86207/20142/0070
71 1231030002 NAWATI IRYANI BIREUEN 03 April 1982 3,18 133017/C/86207/20142/0071
72 1231030003 MURYANA LHOK MERBO 10 Mei 1973 3,34 133017/C/86207/20142/0072
73 1231030004 JUWARNI BIREUEN 27 Maret 1977 3,79 133017/C/86207/20142/0073
74 1231030005 MURDIANA COT IE JU 02 April 1979 3,41 133017/C/86207/20142/0074
75 1231030006 FITTRIAWATI KUALA JEUMPA 07 Agustus 1983 2,99 133017/C/86207/20142/0075
76 1231030007 NURASIAH SAWANG 25 Januari 1979 3,26 133017/C/86207/20142/0076
77 1231030009 YUSMANIDAR BIREUEN 31 Januari 1989 3,67 133017/C/86207/20142/0077
78 1231030010 ZURYATI PANTE PISANG 29 Januari 1971 3,41 133017/C/86207/20142/0078
79 1231030011 YULIANA LUENG DANEUN 05 Juli 1974 3,47 133017/C/86207/20142/0079
80 1231030012 TI AISYAH COT IE JU 08 Oktober 1974 3,1 133017/C/86207/20142/0080
81 1231030013 SYARIFAH SULYA MAKSUM BUGAK KRUENG MATE 09 Januari 1981 3,56 133017/C/86207/20142/0081
82 1231030014 SYAMSYIDAR LINGKA KUTA 16 April 1981 3,11 133017/C/86207/20142/0082
83 1231030015 SURYATI BIREUEN 09 Maret 1980 3,33 133017/C/86207/20142/0083
84 1231030017 SITI AMINAH COT PUUK 21 Januari 1974 3,47 133017/C/86207/20142/0084
85 1231030018 SALMAWATI BIREUEN 10 April 1975 3,27 133017/C/86207/20142/0085
86 1231030019 SALAWATI LUENG DANEUN 03 Desember 1975 3,05 133017/C/86207/20142/0086
87 1231030021 DAHLIANI LUENG DANEUEN 30 April 1979 3,38 133017/C/86207/20142/0087
88 1231030022 RAIHAN FITRI COT TRIENG 24 Juli 1984 3,77 133017/C/86207/20142/0088
89 1231030023 RAHMI AWE GEUTAH 12 Juli 1977 3,22 133017/C/86207/20142/0089
90 1231030024 NURLAILI LUENG DANEUN 15 Agustus 1984 3,32 133017/C/86207/20142/0090
91 1231030025 ELLI JUMIATI LAMPOH OE 06 April 1981 3,12 133017/C/86207/20142/0091
92 1231030026 NURMI ACEH UTARA 31 Desember 1969 3,11 133017/C/86207/20142/0092
93 1231030027 SURYANI JULI 01 Januari 1970 3,32 133017/C/86207/20142/0093
94 1231030028 JULIANA GAMPONG RAYA DAGANG 21 Januari 1982 3,12 133017/C/86207/20142/0094
95 1231030029 ITA FITRIANI ACEH TENGAH 02 Agustus 1982 3,38 133017/C/86207/20142/0095
96 1231030030 IRMAWATI BLANG DALAM 02 Oktober 1989 3,33 133017/C/86207/20142/0096
97 1231030031 HERAWATI RAMBONG PAYONG 15 Juni 1976 3,5 133017/C/86207/20142/0097
98 1231030034 FITRIANI BIREUEN 14 April 1982 3,45 133017/C/86207/20142/0098
99 1231030035 FITRIANI BIREUEN 20 Nopember 1982 3,15 133017/C/86207/20142/0099
100 1231030036 FITRIANI MATAMAMPLAM 09 Agustus 1982 3,43 133017/C/86207/20142/0100
101 1231030038 ERLINA KEUDE LAPANG 18 Oktober 1977 3,72 133017/C/86207/20142/0101
102 1231030039 EMIYANA BLANG KEUTUMBA 18 Oktober 1989 3,43 133017/C/86207/20142/0102
103 1231030040 ELLIZAR BIREUEN 15 Juni 1974 3,56 133017/C/86207/20142/0103
104 1231030041 DARMIATI UTEUEN GATHOM 01 Agustus 1987 3,17 133017/C/86207/20142/0104
105 1231030042 DAHNIAR COT JABET 03 Desember 1982 3,76 133017/C/86207/20142/0105
106 1231030043 DARNITA COT BADA BARAT 01 Desember 1978 3,52 133017/C/86207/20142/0106
107 1231030044 AZIZAH LUENG DANEUN 20 Desember 1970 3,6 133017/C/86207/20142/0107
108 1031030062 WIDIYAWATI SERUWAY 03 Agustus 1977 3,32 133017/C/86207/20142/0108
109 1031030063 DAHLIA KP DURIAN 08 Februari 1985 3,26 133017/C/86207/20142/0109
110 1131030059 FITRI WIDAYANTI DESA KESEHATAN 06 Nopember 1987 3,46 133017/C/86207/20142/0110
111 1131030061 HALIJAH DESA BINJAI 05 April 1981 3,55 133017/C/86207/20142/0111
112 1131030062 HERYANA SULUM 07 Mei 1988 3,51 133017/C/86207/20142/0112
113 1131030069 NOFI MUSFIRAH ALUR NUNANG 23 Nopember 1990 3,5 133017/C/86207/20142/0113
114 1131030072 SAFRIDA SALAHAJI 29 Desember 1984 3,36 133017/C/86207/20142/0114
115 1131030074 SITI AISYAH ALUE LHOK 05 Maret 1984 3,22 133017/C/86207/20142/0115
116 1131030078 YUNI SAFITRI KUALASIMPANG 10 Juni 1987 3,5 133017/C/86207/20142/0116
117 1131030082 MARTINI PULAU TIGA 26 September 1982 3,52 133017/C/86207/20142/0117
118 1131030084 NURAIDAH ALUR MANIS 04 Juni 1984 3,29 133017/C/86207/20142/0118
119 1131030086 PONIAH SUKA JADI 10 Januari 1972 3,53 133017/C/86207/20142/0119
120 1131030087 SITI KHADIJAH S  KANAN 09 Desember 1969 3,45 133017/C/86207/20142/0120
121 1131030088 SITI SARAH BANDAR MAHLIGAI 08 Juli 1983 3,41 133017/C/86207/20142/0121
122 1131030089 SRI SUGI HARTINI ALUR TANI 11 09 Nopember 1983 3,28 133017/C/86207/20142/0122
123 1131030091 UMI KALSUM KAMPUNG BESAR 23 April 1979 3,07 133017/C/86207/20142/0123
124 1131030093 NGATINI JAMUR JELATANG 08 Agustus 1979 3,25 133017/C/86207/20142/0124
125 1131030095 AIDA WATI PULAU TIGA 24 Oktober 1987 3,4 133017/C/86207/20142/0125
126 1131030096 RIA HERVINA KAMPUNG MESJID 24 Januari 1986 3,43 133017/C/86207/20142/0126
127 1131030100 NURCAHAYA KAMPUNG MELAYU 15 Mei 1987 3,44 133017/C/86207/20142/0127
128 1131030111 NURBAITI ACEH BESAR 10 Juni 1983 3,18 133017/C/86207/20142/0128
129 1231030112 SURYANI BANDA ACEH 11 Mei 1979 3,54 133017/C/86207/20142/0129
130 1131030139 SALMA DESA KEUBANG 14 September 1975 3,7 133017/C/86207/20142/0130
131 1131030146 LAILA FADLIAH LAMPEUDEUE TUNONG 05 Mei 1986 3,36 133017/C/86207/20142/0131
132 1231030088 NURMA MEUNASAH RAYA 25 Maret 1974 3,29 133017/C/86207/20142/0132
133 1231030077 RAHMAH MEUTIA MNS BLANG 31 Desember 1973 3,28 133017/C/86207/20142/0133
134 1231030078 NURRAUZAH DEAH TEUMANAH 08 September 1988 3,42 133017/C/86207/20142/0134
135 1231030081 NURAIDA TEUREUBUE 08 April 1980 3,55 133017/C/86207/20142/0135
136 1231030080 SYAMSIDAR KARIENG 02 Januari 1979 3,5 133017/C/86207/20142/0136
137 1231030094 ELITA GUSMIATI BANDAR BARU 08 Agustus 1968 3,5 133017/C/86207/20142/0137
138 1231030090 NURMANI DESA PULO RAYA 08 Juni 1986 3,43 133017/C/86207/20142/0138
139 1231030095 JUMIATI TEUREUBUE 10 Juli 1986 3,29 133017/C/86207/20142/0139
140 1131030090 UCI LAILI FITRI ALUR MANIS 25 Mei 1987 3,26 133017/C/86207/20142/0140
141 1131030064 LUSSY SEPTIANA DEWI RANTAU 01 September 1984 3,26 133017/C/86207/20142/0141
142 1131030066 MAYASARI SUKA RAHMAT 30 Desember 1988 3,32 133017/C/86207/20142/0142
143 1131030076 WINDI AFSARI PADANG LANGGIS 30 Nopember 1988 3,5 133017/C/86207/20142/0143
144 1131030077 YUNI HARTATI ALUR NUNANG 04 Juni 1982 3,57 133017/C/86207/20142/0144
145 1131030054 AZMINAH ALUR NUNANG 03 Juli 1978 3,57 133017/C/86207/20142/0145
146 1231030118 IRMAWATI DESA TU 10 Juni 1975 3,14 133017/C/86207/20142/0146
147 1131030067 MISRIANI JAMBO RAMBUNG 10 Nopember 1988 3,5 133017/C/86207/20142/0147
148 1231030089 FAZLIATI DESA PAYA 05 Desember 1982 3,66 133017/C/86207/20142/0148
149 1131030145 NURJANNAH PAYA PISANG KLAT 06 Mei 1986 3,32 133017/C/86207/20142/0149
150 1231030082 NURFAIZA TIBA RAYA 10 Juni 1983 3,43 133017/C/86207/20142/0150
151 1131030102 DARLINA BANDA ACEH 21 Nopember 1973 3,03 133017/C/86207/20142/0151
152 1131030110 FAZRIATI BIREUEN 01 Januari 1964 3,45 133017/C/86207/20142/0152
153 1131030108 AGUSNIDAR SIMPANG ULIM 17 Agustus 1975 3,26 133017/C/86207/20142/0153
154 1131030101 AINI AGUSTINA PEMATANG SIANTAR 27 Agustus 1965 3,15 133017/C/86207/20142/0154
155 1131030008 ROSMAWATI TAKENGON 22 Desember 1974 3,4 133017/C/86207/20142/0155
156 1231030086 MARYAM ULFAH DESA KEUDE TRIENGGADENG 13 Mei 1986 3,48 133017/C/86207/20142/0156
157 1131030142 RAHMAWATI KEL GP ULEE GLE 17 Februari 1986 3,11 133017/C/86207/20142/0157
158 1131030141 SAFRINA PULO SEJAHTERA 09 April 1985 3,21 133017/C/86207/20142/0158
159 1231030093 JUAIRIAH DS BLANG LAMEUE 05 Mei 1987 3,3 133017/C/86207/20142/0159
160 1231030092 FATHIMAH GUMPUENG MESJID 1977-07-20 3,41 133017/C/86207/20142/0160
161 1231030083 ASTRI MULIANA KAMPONG COT 16 Oktober 1982 3,65 133017/C/86207/20142/0161
162 1131030098 DESI LISNAWATI ACEH SELATAN 07 Maret 1989 3,27 133017/C/86207/20142/0162
163 1131030032 SRI RAHAYU RANTAU 23 Maret 1982 3,22 133017/C/86207/20142/0163
164 1031030041 ELLISA PRAPTI ROZA LANGSA 13 September 1989 3,36 133017/C/86207/20142/0164
165 1231030087 SYARIFAH NURMALIAH MEUNASAH JOJO 05 April 1981 3,23 133017/C/86207/20142/0165
166 1031030042 YANTY AGUSTINA KARANG BARU 08 Agustus 1986 3,13 133017/C/86207/20151/0166
167 1131030013 EL FITRIA SUKA JADI 14 April 1992 3,27 133017/C/86207/20151/0167
168 1131030014 ELFANI NOVI SYAHFITRI WONOSARI 10 Nopember 1992 3,32 133017/C/86207/20151/0168
169 1131030015 FITRI TIA NANDAYANI SUKARAMAI 06 Juni 1991 3,29 133017/C/86207/20151/0169
170 1131030019 MELDASANTI TEUPIN GAJAH 17 Oktober 1990 3,29 133017/C/86207/20151/0170
171 1131030023 NURKAEDAH KUALASIMPANG 23 September 1979 3,34 133017/C/86207/20151/0171
172 1131030026 PUTERI NOVI DELIYANA MEDAN 28 Nopember 1990 3,46 133017/C/86207/20151/0172
173 1131030027 RINI NOVITA SARI DESA DALAM 13 Nopember 1991 3,37 133017/C/86207/20151/0173
174 1131030029 RISNAWATI ACEH TIMUR 01 Januari 1973 3,25 133017/C/86207/20151/0174
175 1131030031 SITI RAHILA RANTAU 14 April 1974 3,45 133017/C/86207/20151/0175
176 1131030033 SUDARNI SUKARAKYAT 05 Agustus 1983 3,36 133017/C/86207/20151/0176
177 1131030037 SUWARNI LANGSA 12 Juni 1991 3,34 133017/C/86207/20151/0177
178 1131030039 TUTI AMALIA KEBUN TIGA 15 Mei 1987 3,27 133017/C/86207/20151/0178
179 1131030043 JULI APRIANI SERUWAY 03 Juli 1991 3,45 133017/C/86207/20151/0179
180 1131030047 SITI SARAH ALUE LHOK 28 Agustus 1992 3,46 133017/C/86207/20151/0180
181 1131030048 SRI WARDANI NASUTION MEDAN 02 Maret 1988 3,58 133017/C/86207/20151/0181
182 1131030055 DAHYUNI ACEH UTARA 30 Maret 1986 3,38 133017/C/86207/20151/0182
183 1131030057 ERI YANTI KUALASIMPANG 20 April 1990 3,05 133017/C/86207/20151/0183
184 1131030063 IDAWATI MEUNASAH HAGU 07 Mei 1988 3,39 133017/C/86207/20151/0184
185 1131030068 NILAM PAYA RAHAT 14 April 1987 3,36 133017/C/86207/20151/0185
186 1131030073 SISRI YANTI SERANG JAYA 27 September 1989 3,43 133017/C/86207/20151/0186
187 1131030075 SUMIYEM JAMUR LABU 21 April 1976 3,42 133017/C/86207/20151/0187
188 1131030104 ELVI MARLINA SABANG 18 Januari 1977 3,55 133017/C/86207/20151/0188
189 1231030148 SRI WAHYUNINGSIH HARUM SARI 27 Juli 1985 3,3 133017/C/86207/20151/0189
190 1231030150 DAHLIA IRMAWATI KUALA SIMPANG 23 Nopember 1985 3,24 133017/C/86207/20151/0190
191 1231030152 DAIYAH LUBUK BATIL 05 Maret 1981 3,35 133017/C/86207/20151/0191
192 1231030153 NURLELAWATI DESA BALAI 14 Juli 1975 3,3 133017/C/86207/20151/0192
193 1231030156 RUSLIDAWATI LUBUK BATIL 15 Januari 1973 3,13 133017/C/86207/20151/0193
194 1231030166 WARDINAH IDI 15 Februari 1983 3,26 133017/C/86207/20151/0194
195 1231030168 NURBAITY KUALASIMPANG 10 Nopember 1982 3,27 133017/C/86207/20151/0195
196 1231030169 IRMA WONO SARI 24 Maret 1986 3,35 133017/C/86207/20151/0196
197 1131030005 SITI LAILA  M  YY JEULINGKE ACEH BESAR 17 Agustus 1970 3,43 133017/C/86207/20152/0197
198 1131030007 DEWI INDRASARI BANDA ACEH 08 Februari 1975 3,38 133017/C/86207/20152/0198
199 1131030012 DEWI RIDHA HANDAYANI KUALA SIMPANG 14 Nopember 1978 3,26 133017/C/86207/20152/0199
200 1131030016 IRAMAYANTI PULAU TIGA 12 Juni 1986 3,38 133017/C/86207/20152/0200
201 1131030018 MARLIYAH KARANG BARU 30 Desember 1975 3,26 133017/C/86207/20152/0201
202 1131030020 MUNAWARA SARI WONO SARI 07 Juli 1992 3,23 133017/C/86207/20152/0202
203 1131030028 RINI WULANDARI ALUR MENTAWAK 25 September 1990 3,34 133017/C/86207/20152/0203
204 1131030030 RITA MAWATI JAMBO RAMBONG 04 Agustus 1992 3,41 133017/C/86207/20152/0204
205 1131030035 SURIANI PAYA META 14 Juni 1983 3,22 133017/C/86207/20152/0205
206 1131030036 SUSIANA ALUR MENTAWAK 04 Juni 1990 3,26 133017/C/86207/20152/0206
207 1131030044 NURUL MAHMUDA BUKIT RATA 15 Juni 1993 3,38 133017/C/86207/20152/0207
208 1131030051 YUSNAWITA EKA NINGSIH KUALASIMPANG 03 Mei 1984 3,34 133017/C/86207/20152/0208
209 1131030107 SUKMAWATI COT MANCANG 06 April 1970 3,34 133017/C/86207/20152/0209
210 1131030116 SAFRIDA PAYA PISANG 06 Mei 1983 3,51 133017/C/86207/20152/0210
211 1131030123 ZUNNURAINI GEULANGGANG 09 Januari 1982 3,59 133017/C/86207/20152/0211
212 1131030125 ISMATURRAHMI ULE GLE 18 Desember 1987 3,84 133017/C/86207/20152/0212
213 1131030155 NURHASNI BIREUEN 08 April 1980 3,56 133017/C/86207/20152/0213
214 1231030056 ISATIR RADHIAH SIGLI 03 September 1991 3,73 133017/C/86207/20152/0214
215 1231030113 MARDALINA MEULABOH 14 Maret 1970 3,27 133017/C/86207/20152/0215
216 1231030141 SRI SUNDARI PULAU TIGA 03 Nopember 1989 3,34 133017/C/86207/20152/0216
217 1231030143 LITA DEVITA KUALASIMPANG 22 Januari 1994 3,3 133017/C/86207/20152/0217
218 1231030149 NURHAYATI TEBING TINGGI 20 Nopember 1985 3,15 133017/C/86207/20152/0218
219 1231030154 SUNARTI KUALA GENTING 14 Oktober 1985 3,27 133017/C/86207/20152/0219
220 1231030155 SAPARILLA SIMPANG IV 28 Maret 1972 3,22 133017/C/86207/20152/0220
221 1231030158 CHAIRIAH KARANG BARU 15 September 1984 3,23 133017/C/86207/20152/0221
222 1231030159 NINI ROSNAINI TELAGA MUKU 12 Desember 1984 2,93 133017/C/86207/20152/0222
223 1231030161 ROSIDAH LANGSA 20 Februari 1969 3,49 133017/C/86207/20152/0223
224 1231030162 HUSNA MALINA SIMPANG IV UPAH 19 Maret 1979 3,31 133017/C/86207/20152/0224
225 1231030164 SUSI RYAWATI TANJUNG SEUMANTOH 16 Juli 1985 3,23 133017/C/86207/20152/0225
226 1231030171 ASNIDAR LANGSA 25 Maret 1983 3,1 133017/C/86207/20152/0226
227 1231030172 NURLIANTI AIR MASIN 26 April 1983 3,45 133017/C/86207/20152/0227
228 1131030147 AGUSTINI BIDOK 06 Agustus 1991 3,44 133017/C/86207/20152/0228
229 1131030154 NAZARIAH DAYAH LEUBUE, KEC. ULIM 07 Agustus 1984 3,64 133017/C/86207/20152/0229
230 1131030050 TUTI RATNA PANDAN SARI 13 Nopember 1992 3,55 133017/C/86207/20152/0230
231 1131030040 EVITRIANA SEUNEBUK BARO 21 Juni 1991 3,52 133017/C/86207/20161/0231
232 1131030114 NURLAILA RD  MELAYU 03 Agustus 1978 3,54 133017/C/86207/20161/0232
233 1131030115 MURSYIDAH RD. MELAYU 20 Oktober 1979 3,41 133017/C/86207/20161/0233
234 1231030046 MARLINA MNS MESJID 01 Mei 1982 3,5 133017/C/86207/20161/0234
235 1231030049 NURHANIFAH USI MESJID 24 Februari 1980 3,26 133017/C/86207/20161/0235
236 1231030051 NANI SURYANI DESA DAYAH KEURAKO 09 Desember 1981 3,52 133017/C/86207/20161/0236
237 1231030053 ERNAWATI JEUNIB 10 April 1975 3,67 133017/C/86207/20161/0237
238 1231030057 SUGIARNI WONOGIRI 15 Mei 1984 3,67 133017/C/86207/20161/0238
239 1231030058 RISMAWATI DRIEN TUJOH 04 Juni 1987 3,45 133017/C/86207/20161/0239
240 1231030062 CUT FARIDAH HANUM TIBA RAYA 30 April 1979 3,53 133017/C/86207/20161/0240
241 1231030072 RATNAWATI DESA RUSEB 08 Nopember 1994 3,32 133017/C/86207/20161/0241
242 1231030075 SHAFARIAH TRIENGGADENG 10 Februari 1977 3,4 133017/C/86207/20161/0242
243 1231030098 JUNITA DAYAH KLENG 09 Mei 1986 3,4 133017/C/86207/20161/0243
244 1231030108 SAFRIDA PERDAMAIAN KAB LANGK 17 Agustus 1983 3,77 133017/C/86207/20161/0244
245 1231030126 SELLY FATMAWATI KARANG BARU 30 Agustus 1992 3,32 133017/C/86207/20161/0245
246 1231030127 SYAMSIAH TELAGA MUKU I I 14 Juni 1993 3,4 133017/C/86207/20161/0246
247 1231030133 SALBIYAH LANGSA 23 Juli 1989 3,42 133017/C/86207/20161/0247
248 1231030134 ROSINTA ALUE LHOK 17 Januari 1994 3,4 133017/C/86207/20161/0248
249 1331030080 SITI MUNARA SULUM 07 Juli 1992 3,25 133017/C/86207/20161/0249
250 1331030083 PENI MALINDA SUNTING 14 Februari 1995 3,34 133017/C/86207/20161/0250
251 1131030060 FITRIANI SERUWAY 20 April 1989 3.38 133017/C/86207/20162/0251
252 1131030118 NURLINA GEULANGGANG 19 April 1984 3.40 133017/C/86207/20162/0252
253 1131030131 FURQANIWATY TEUBENG DAYAH 10 Agustus 1983 3.42 133017/C/86207/20162/0253
254 1231030054 NURJANNAH LHOKNGA 20 April 1982 3.18 133017/C/86207/20162/0254
255 1231030055 RAFIKAH MNS. BALEK 01 Juli 1985 3.34 133017/C/86207/20162/0255
256 1231030061 SYARIFAH MUTIA TIBA RAYA 23 Februari 1989 3.43 133017/C/86207/20162/0256
257 1231030067 NURAJIMAH PULO LHOIH 21 Desember 1992 3.41 133017/C/86207/20162/0257
258 1231030074 RAUDHATUL JANNAH BLANG AWE 09 September 1991 3.34 133017/C/86207/20162/0258
259 1231030123 SITI AMINAH BOBO 17 Agustus 1992 3.30 133017/C/86207/20162/0259
260 1231030131 TRIWATI RONGOH 12 Desember 1981 3.42 133017/C/86207/20162/0260
261 1231030136 DARSIYANTI LAUE LHOK 20 Mei 1993 3.46 133017/C/86207/20162/0261
262 1231030137 SUMARNI S PERUPUK 24 Februari 1994 3.56 133017/C/86207/20162/0262
263 1231030142 SILAWATI PULAU TIGA 20 April 1974 3.43 133017/C/86207/20162/0263
264 1231030176 YUNANISAH SUNGAI LIPUT 15 Januari 1982 3.40 133017/C/86207/20162/0264
265 1331030015 MAULIDA YANTI PEULAKAN TAMBO 18 Agustus 1994 3.58 133017/C/86207/20162/0265
266 1331030018 HAYATUN BAITI MENASAH RAYA 04 Agustus 1969 3.29 133017/C/86207/20162/0266
267 1331030019 KIFAYAH MUZALIFAH BANDA ACEH 09 Nopember 1993 3.68 133017/C/86207/20162/0267
268 1331030022 ERLINAWATI COT GEUREUFAI 08 Nopember 1985 3.54 133017/C/86207/20162/0268
269 1331030023 EKAWATI PANTAN KEMUNING 18 September 1984 3.68 133017/C/86207/20162/0269
270 1331030043 AGUSNADIMAH BLANG PANJOE 17 Agustus 1972 3.51 133017/C/86207/20162/0270
271 1331030044 NURLELA PEUREULAK 12 April 1980 3.25 133017/C/86207/20162/0271
272 1331030045 HAMDAYANI BIREUEN 12 Juni 1983 3.82 133017/C/86207/20162/0272
273 1331030046 FITRI WAHYUNI SAPTA MARGA 28 April 1989 3.06 133017/C/86207/20162/0273
274 1331030047 ROSWANI BLANG PANJOE 12 Maret 1976 3.00 133017/C/86207/20162/0274
275 1331030048 HUSNIAH PEUDADA 02 Januari 1987 3.32 133017/C/86207/20162/0275
276 1331030049 TI AMINAH JULI SNB. GUNCI 03 Agustus 1980 3.36 133017/C/86207/20162/0276
277 1331030050 MARDHIANA JEUNIEB 25 Januari 1985 3.73 133017/C/86207/20162/0277
278 1331030052 KHUZAIMAH PANTE CUT 30 September 1987 3.24 133017/C/86207/20162/0278
279 1331030053 ZAWIR RAHMI ACEH 27 Maret 1989 3.50 133017/C/86207/20162/0279
280 1331030054 MUSVIANA BLANG KEUTUMBA 05 Nopember 1988 3.28 133017/C/86207/20162/0280
281 1331030055 NURLAILA MATANG RANUP LASEH 14 Januari 1988 3.39 133017/C/86207/20162/0281
282 1331030056 NURLIATI DAKUTA 07 Oktober 1980 3.52 133017/C/86207/20162/0282
283 1331030059 FITTRIANA SEUNEUBOK GUNCI 01 Nopember 1983 3.51 133017/C/86207/20162/0283
284 1331030060 NURMALA PANTE PISANG 20 Juni 1970 3.47 133017/C/86207/20162/0284
285 1331030061 RUHANI GP. RAYA TAMBO 08 Desember 1970 3.25 133017/C/86207/20162/0285
286 1331030063 MURNIYATI JEUNIEB 02 Februari 1987 3.28 133017/C/86207/20162/0286
287 1331030065 MARKAMAH MEDAN 12 Maret 1976 3.29 133017/C/86207/20162/0287
288 1331030066 HERLINA PANTE GAJAH 12 Juni 1971 3.41 133017/C/86207/20162/0288
289 1331030067 JULIANA PULO LAWANG 27 Maret 1983 3.45 133017/C/86207/20162/0289
290 1331030068 HERAWATI TEUPIN REUDUEP 03 April 1977 3.22 133017/C/86207/20162/0290
291 1331030072 MASLI YANI PAHLAWAN 05 Juli 1987 3.34 133017/C/86207/20162/0291
292 1331030073 YUSRI DEWI PURWODADI 15 Oktober 1984 3.29 133017/C/86207/20162/0292
293 1331030077 ULFA RISMAYA PUTRI LANGSA 12 Juni 1993 3.44 133017/C/86207/20162/0293
294 1331030082 LOVITA SRI UNDARI KARANG BARU 23 Oktober 1991 3.32 133017/C/86207/20162/0294
295 1331030084 DARMAYANTI KARANG BARU 12 Maret 1993 3.17 133017/C/86207/20162/0295
296 1431030081 ASMAYANI BAMBI 13 Juni 1984 3.23 133017/C/86207/20162/0296
297 1431030109 DINA RAHMAWATI BANDA ACEH 29 September 1984 3.66 133017/C/86207/20162/0297
298 1231030110 NOVI YUSIRDA ACEH SELATAN 28 April 1995 3.40 133017/C/86207/20162/0298
299 1231030115 JULIANDA DESA MEUE 10 Juli 1991 3.34 133017/C/86207/20162/0299
300 1331030076 FAUZIAH CINTA RAJA 01 April 1988 3.46 133017/C/86207/20162/0300
301 133103078 NURUL HAYATI LANGSA 02 Juli 1993 3.40 133017/C/86207/20162/0301
302 1431030106 ARITA AGUSTINA KULAM BARO 17 Agustus 1982 3.32 133017/C/86207/20162/0302
303 1231030135 RISKA MARFIRA RANTAU 14 Desember 1993 3.47 133017/C/86207/20162/0303
304 1231030147 NURHIDAYATI LANGSA 20 Maret 1984 3.31 133017/C/86207/20162/0304
305 1231030175 SUGIATI PULAU TIGA 18 September 1983 3.40 133017/C/86207/20162/0305
306 1231030130 SUSILAWATI BLANG KANDIS 27 Juni 1979 3,29 133017/C/86207/20171/0306
307 1131030150 ROSDIANA BANDA ACEH 15 Mei 1974 3,84 133017/C/86207/20171/0307
308 1231030068 NURUL HIDAYATI DAYAH TANOH 03 Juni 1993 3,56 133017/C/86207/20171/0308
309 1231030073 AIDA FITRIA BLANG AWE 12 April 1993 3,34 133017/C/86207/20171/0309
310 1231030097 PRYASDIKA BANDA ACEH 17 Juni 1988 3,39 133017/C/86207/20171/0310
311 1331030017 ELVA SUSANTI DAYAH CALEUE 05 Januari 1981 3,66 133017/C/86207/20171/0311
312 1331030042 SITI SAPURA BLANG PULO 02 Agustus 1982 3,25 133017/C/86207/20171/0312
313 1331030079 RENY HANDAYANI LANGSA 22 April 1994 3,38 133017/C/86207/20171/0313
314 1431030078 ROSNITA COET TEUNGOH 05 Desember 1986 3,24 133017/C/86207/20171/0314
315 1431030082 LINDAWATI DAYAH USI 10 April 1982 3,47 133017/C/86207/20171/0315
316 1431030101 SURYANI DESA IE MASEN 31 Desember 1978 3,36 133017/C/86207/20171/0316